[[{"header":{"parameterUnit":"m.s-1","parameterCategory":1,"la1":30.2991,"la2":30.254,"lo1":-89.0895,"lo2":-89.0444,"dy":0.0017,"dx":0.0017,"nx":28,"ny":28,"refTime":"2023-08-01T03:00:00:Z","depth":0,"parameterNumber":2,"parameterNumberName":"U-component_of_WINDS"},"data":[0,0,0,0,0,0,0,0,0,0,0,0,0,0,0,0,0,0,0,0,0,0,0,0,0,0,0,0,0,0,0,0,0,0,0,0,0,0,0,0,0,0,0,0,0,0,0,0,0,0,0,0,0,0,0,0,0,0,2.5428,2.543,0,2.5568,2.557,2.5571,2.5569,2.5567,2.5565,2.5563,2.5707,2.5713,2.5718,0,0,0,0,0,0,0,0,0,0,0,0,0,2.5157,2.5162,2.5428,2.543,2.5431,2.5568,2.557,2.5572,2.5569,2.5567,2.5565,2.5563,2.5705,2.5712,2.5719,0,0,0,0,0,0,0,0,0,0,0,0,0,2.5283,2.5163,2.5428,2.5447,2.545,2.5568,2.557,2.5572,2.557,2.5567,2.5564,2.5562,2.5703,2.5711,2.572,2.5828,0,0,2.5745,2.5749,0,0,0,0,0,0,0,0,2.5276,2.5293,2.5442,2.5446,2.5449,2.5548,2.5527,2.5658,2.5571,2.5524,2.5563,2.556,2.5657,2.5669,2.5701,2.5834,2.5841,2.5746,2.5751,2.5755,2.5757,0,0,0,0,0,0,0,2.5268,2.5287,2.5483,2.5444,2.5449,2.5448,2.5463,2.5552,2.5605,2.5528,2.5528,2.5545,2.5658,2.5693,2.5704,2.5843,2.5746,2.5753,2.5758,2.5762,2.607,2.6073,0,0,0,0,0,0,2.5255,2.528,2.5479,2.5488,2.5354,2.5455,2.5472,2.5519,2.5604,2.5614,2.5547,2.5544,2.568,2.5695,2.571,2.584,2.5755,2.5762,2.5767,2.6066,2.607,2.6074,0,0,0,0,0,0,2.5249,2.5273,2.5473,2.5384,2.5409,2.5463,2.5516,2.5524,2.5559,2.5618,2.5627,2.5573,2.5679,2.5698,2.5798,2.5845,2.5766,2.5774,2.6063,2.6068,2.6072,2.6103,0,0,0,0,0,0,2.5241,2.5271,2.5313,2.5385,2.5414,2.556,2.5519,2.5528,2.5573,2.5571,2.5645,2.5655,2.5678,2.5785,2.5806,2.5855,2.578,2.6059,2.6065,2.607,2.6098,2.6108,2.6117,0,0,0,0,0,2.5232,2.5316,2.5315,2.5339,2.5468,2.5562,2.5579,2.5604,2.5577,2.5619,2.5657,2.5652,2.5837,2.5796,2.5819,2.5871,2.6056,2.6063,2.607,2.6093,2.6106,2.6116,0,0,0,0,0,0,2.5249,2.5326,2.5325,2.5436,2.5493,2.5562,2.5616,2.5617,2.5682,2.5677,2.5705,2.5722,2.5822,2.5857,2.581,2.5979,2.5943,2.5955,2.5953,2.5965,2.5974,2.5963,2.5787,0,0,0,0,0,2.5265,2.5336,2.54,2.5491,2.5519,2.5563,2.5605,2.5619,2.5679,2.5703,2.5748,2.5806,2.5877,2.5923,2.5992,2.6103,2.6118,2.615,2.616,2.6167,2.6177,2.6236,2.6251,2.6097,2.6097,2.6097,0,0,2.53,2.5351,2.5394,2.5496,2.5541,2.5613,2.5583,2.5661,2.5714,2.5715,2.5811,2.5847,2.5913,2.6019,2.6067,2.6051,2.6223,2.6176,2.6182,2.6188,2.6245,2.626,2.6273,2.6102,2.6101,2.61,0,0,2.54,2.5447,2.5527,2.5573,2.5642,2.567,2.5689,2.5758,2.5781,2.5879,2.588,2.5944,2.6066,2.6112,2.6152,2.6268,2.6266,2.629,2.6339,2.6397,2.6409,2.6419,2.6459,2.6473,2.63,2.63,2.63,0,2.5435,2.5543,2.5568,2.5645,2.5689,2.5693,2.5773,2.5817,2.5905,2.5935,2.5915,2.6067,2.6112,2.6227,2.6255,2.6288,2.631,2.6281,2.6405,2.6416,2.6426,2.6465,2.648,2.6302,2.6302,2.6302,2.6301,0,2.5581,2.5656,2.5713,2.5796,2.5847,2.5926,2.5962,2.601,2.6019,2.6049,2.6147,2.6202,2.628,2.6309,2.632,2.6426,2.6413,2.6399,2.6363,2.6443,2.6479,2.6494,2.6305,2.6305,2.6304,2.6303,0,0,2.5696,2.5792,2.5812,2.5849,2.5925,2.5983,2.6061,2.6138,2.6177,2.6238,2.6303,2.6406,2.6392,2.6438,2.6453,2.6504,2.659,2.6484,2.6485,2.65,2.6708,2.6717,2.6734,2.6589,2.6592,2.6594,2.6702,0,2.5803,2.5942,2.5965,2.6087,2.6155,2.6159,2.6227,2.628,2.631,2.6372,2.6405,2.6476,2.6455,2.6482,2.6532,2.6569,2.6632,2.6562,2.6649,2.6652,2.6631,2.6753,2.6763,2.6862,2.6716,2.6719,2.6721,0,2.5946,2.6009,2.6136,2.6201,2.6231,2.6291,2.6362,2.6422,2.6482,2.65,2.655,2.6559,2.6639,2.66,2.6711,2.6662,2.6699,2.6723,2.6727,2.6735,2.669,2.6763,2.6894,2.6908,2.6743,2.6742,2.674,0,2.6014,2.6131,2.6222,2.6254,2.6332,2.6375,2.6409,2.6467,2.651,2.6573,2.6601,2.6672,2.6711,2.6765,2.6793,2.6762,2.6901,2.6864,2.6917,2.6916,2.6945,2.6942,2.7083,2.6971,2.6971,2.6971,2.6971,0,2.613,2.6207,2.6254,2.6309,2.6396,2.6422,2.6507,2.6541,2.6592,2.6653,2.6662,2.6719,2.6753,2.6816,2.6838,2.6925,2.6943,2.6959,2.6964,2.6958,2.6955,2.6981,2.6975,2.6975,2.6974,2.6973,2.6973,0,2.6221,2.6255,2.6354,2.642,2.6438,2.6498,2.6554,2.6608,2.6637,2.6715,2.6735,2.6781,2.6855,2.6888,2.698,2.6995,2.7093,2.7094,2.7073,2.7074,2.7124,2.7118,2.7285,2.7307,2.7183,2.7184,2.7185,0,2.6291,2.6351,2.6422,2.6464,2.65,2.6567,2.6612,2.664,2.6685,2.6757,2.6802,2.6876,2.6937,2.7055,2.7096,2.7165,2.7167,2.7221,2.7177,2.7169,2.7166,2.7161,2.7166,2.7228,2.7229,2.723,2.7231,0,2.6413,2.6426,2.649,2.6559,2.6612,2.6668,2.6723,2.6757,2.6793,2.6844,2.6919,2.6966,2.7059,2.7132,2.7204,2.7239,2.7241,2.7244,2.726,2.7253,2.7238,2.7245,2.7092,2.724,2.7239,2.7238,2.7238,2.7238,2.6495,2.6547,2.6605,2.6675,2.6719,2.677,2.6823,2.6858,2.6922,2.6999,2.7012,2.7091,2.7148,2.7245,2.7283,2.7345,2.7332,2.7355,2.7361,2.7365,2.7367,2.7229,2.7359,2.7358,2.7358,2.7358,2.7358,0,2.6615,2.6652,2.6716,2.6792,2.6847,2.6844,2.6904,2.695,2.702,2.7073,2.7132,2.7217,2.7288,2.7334,2.7405,2.7446,2.7448,2.7463,2.746,2.7468,2.7376,2.7354,2.746,2.746,2.746,2.746,2.746,2.746,2.6684,2.6771,2.6792,2.6901,2.6937,2.7015,2.7049,2.7096,2.7138,2.7233,2.7291,2.7321,2.7371,2.7445,2.7509,2.7521,2.7546,2.7561,2.7572,2.7485,2.7474,2.7464,2.7444,2.7567,2.7567,2.7658,2.7659,2.766]},{"header":{"parameterUnit":"m.s-1","parameterCategory":1,"la1":30.2991,"la2":30.254,"lo1":-89.0895,"lo2":-89.0444,"dy":0.0017,"dx":0.0017,"nx":28,"ny":28,"refTime":"2023-08-01T03:00:00:Z","depth":0,"parameterNumber":3,"parameterNumberName":"V-component_of_WINDS"},"data":[0,0,0,0,0,0,0,0,0,0,0,0,0,0,0,0,0,0,0,0,0,0,0,0,0,0,0,0,0,0,0,0,0,0,0,0,0,0,0,0,0,0,0,0,0,0,0,0,0,0,0,0,0,0,0,0,0,0,3.2205,3.2205,0,3.2159,3.2158,3.2158,3.2061,3.2059,3.2057,3.2055,3.2009,3.2009,3.201,0,0,0,0,0,0,0,0,0,0,0,0,0,3.2212,3.2213,3.2205,3.2205,3.2204,3.2159,3.2158,3.2157,3.2061,3.2059,3.2057,3.2054,3.2009,3.2009,3.201,0,0,0,0,0,0,0,0,0,0,0,0,0,3.2192,3.2213,3.2206,3.2151,3.2145,3.2159,3.2158,3.2157,3.2062,3.2059,3.2056,3.2053,3.2008,3.2009,3.201,3.2073,0,0,3.2013,3.2013,0,0,0,0,0,0,0,0,3.2193,3.2192,3.2159,3.2155,3.2149,3.2113,3.2143,3.2129,3.2063,3.2094,3.2055,3.2052,3.2046,3.2043,3.2041,3.2071,3.2069,3.2013,3.2013,3.2014,3.2014,0,0,0,0,0,0,0,3.2195,3.2193,3.2187,3.2159,3.2153,3.2129,3.2123,3.214,3.2087,3.2091,3.2084,3.2079,3.2042,3.204,3.2039,3.2068,3.2013,3.2013,3.2014,3.2014,3.2146,3.2149,0,0,0,0,0,0,3.2204,3.2195,3.2188,3.2185,3.2164,3.2131,3.2124,3.2127,3.2086,3.2077,3.2082,3.2075,3.204,3.2038,3.2037,3.2107,3.2014,3.2014,3.2015,3.2144,3.2147,3.215,0,0,0,0,0,0,3.2204,3.2204,3.219,3.2188,3.2185,3.2134,3.2138,3.2128,3.2126,3.2079,3.2069,3.209,3.2038,3.2036,3.2065,3.2104,3.2015,3.2016,3.214,3.2145,3.2149,3.2249,0,0,0,0,0,0,3.2205,3.2205,3.2229,3.219,3.2185,3.2219,3.2141,3.2129,3.2127,3.2118,3.2084,3.2076,3.2036,3.2064,3.2065,3.2104,3.2016,3.2136,3.2142,3.2147,3.2242,3.2257,3.2269,0,0,0,0,0,3.2206,3.2259,3.223,3.223,3.2213,3.2221,3.2219,3.2171,3.2131,3.2154,3.2124,3.2077,3.21,3.2068,3.2069,3.2108,3.2133,3.214,3.2147,3.2236,3.2254,3.2269,0,0,0,0,0,0,3.2305,3.2253,3.222,3.2263,3.2247,3.2205,3.2233,3.2191,3.2187,3.2178,3.212,3.2113,3.2149,3.2131,3.2096,3.2166,3.2109,3.2116,3.2177,3.2193,3.2206,3.2209,3.2017,0,0,0,0,0,3.2332,3.2342,3.2296,3.2338,3.2332,3.2284,3.2286,3.225,3.2231,3.2224,3.2197,3.2181,3.2184,3.2188,3.2188,3.2239,3.223,3.2267,3.228,3.2291,3.2298,3.2323,3.2338,3.2173,3.2173,3.2172,0,0,3.2387,3.236,3.2371,3.2358,3.2341,3.2353,3.2279,3.2295,3.2303,3.2227,3.2252,3.2231,3.2209,3.2249,3.2265,3.2235,3.2342,3.23,3.2309,3.231,3.2331,3.2347,3.2361,3.2177,3.2176,3.2176,0,0,3.2494,3.2475,3.2507,3.2492,3.2468,3.2435,3.2444,3.2407,3.239,3.2414,3.2357,3.2366,3.2373,3.236,3.2354,3.2455,3.2411,3.2457,3.2527,3.2552,3.2565,3.2576,3.2611,3.2624,3.2464,3.2464,3.2464,0,3.2567,3.2582,3.253,3.2549,3.2544,3.2475,3.2507,3.2495,3.2473,3.2472,3.2438,3.2445,3.2426,3.2461,3.2485,3.2483,3.249,3.246,3.2567,3.2578,3.2587,3.262,3.2634,3.247,3.2469,3.2469,3.2468,0,3.2671,3.2683,3.2712,3.2691,3.269,3.2716,3.2667,3.2673,3.2637,3.2608,3.2633,3.2607,3.2601,3.2607,3.2573,3.2637,3.2619,3.2577,3.2519,3.261,3.2639,3.2652,3.2478,3.2476,3.2474,3.2473,0,0,3.284,3.2789,3.28,3.279,3.2757,3.2765,3.2788,3.2781,3.2786,3.2773,3.279,3.2798,3.2758,3.2752,3.2716,3.2737,3.2818,3.2693,3.2691,3.2716,3.2886,3.2917,3.2932,3.2789,3.2791,3.2793,3.2887,0,3.2939,3.2974,3.2927,3.2972,3.2982,3.2916,3.2935,3.2918,3.2891,3.2895,3.2866,3.2872,3.282,3.2816,3.2834,3.2804,3.2851,3.2797,3.2803,3.2804,3.281,3.2948,3.2981,3.3071,3.2898,3.29,3.2902,0,3.3059,3.3051,3.3097,3.3061,3.3063,3.3081,3.3071,3.3076,3.3054,3.3033,3.3026,3.2982,3.3001,3.2945,3.297,3.2934,3.2934,3.292,3.2922,3.292,3.2858,3.2949,3.3099,3.3112,3.292,3.2918,3.2917,0,3.3176,3.3177,3.3204,3.3197,3.3156,3.317,3.3153,3.3129,3.3128,3.3119,3.3117,3.3111,3.3107,3.3103,3.3059,3.3022,3.3089,3.3029,3.3072,3.3073,3.3089,3.3088,3.324,3.309,3.309,3.309,3.309,0,3.3291,3.3322,3.3255,3.3272,3.3304,3.325,3.3284,3.3261,3.3239,3.325,3.3193,3.3205,3.3146,3.3151,3.3117,3.3142,3.3141,3.3125,3.3115,3.3129,3.3131,3.3128,3.312,3.3093,3.3093,3.3092,3.3091,0,3.3427,3.3384,3.3409,3.3368,3.3358,3.3384,3.3348,3.3362,3.3332,3.3346,3.3346,3.3299,3.3302,3.3257,3.3252,3.3229,3.3269,3.3249,3.3277,3.327,3.3315,3.3311,3.3469,3.3487,3.3327,3.3329,3.333,0,3.3503,3.3525,3.3486,3.3488,3.3475,3.3481,3.3478,3.3426,3.3426,3.3403,3.3419,3.3418,3.3413,3.3421,3.3386,3.3381,3.336,3.3415,3.3359,3.3372,3.3359,3.3358,3.336,3.3427,3.3429,3.3431,3.3432,0,3.3642,3.3619,3.3618,3.361,3.3609,3.36,3.3587,3.3593,3.3536,3.3539,3.3541,3.3538,3.3531,3.353,3.3518,3.3501,3.3457,3.3451,3.346,3.3475,3.3489,3.3481,3.3308,3.3447,3.3446,3.3445,3.3444,3.3443,3.3749,3.3765,3.374,3.374,3.3725,3.3714,3.3725,3.3695,3.3696,3.3687,3.3656,3.3663,3.364,3.362,3.3606,3.3611,3.3584,3.3598,3.3601,3.3605,3.3613,3.3489,3.3609,3.3608,3.3608,3.3608,3.3607,0,3.3884,3.3865,3.3866,3.3849,3.385,3.3808,3.3792,3.3795,3.3802,3.3784,3.378,3.3782,3.3781,3.3745,3.3739,3.375,3.3729,3.375,3.3748,3.3745,3.3638,3.363,3.3766,3.3766,3.3766,3.3766,3.3766,3.3766,3.3955,3.3979,3.3953,3.3969,3.3949,3.3955,3.395,3.3939,3.3924,3.3929,3.3927,3.3904,3.3879,3.387,3.3867,3.3856,3.3856,3.3883,3.3866,3.3768,3.3752,3.3738,3.373,3.3884,3.3884,3.3972,3.3972,3.3973]}]]